This is the latest recevied weather packets stored in our database for station/object W9WRP. If no packets are shown the sender has not sent any weather packets the latest 10 day(s).
| Time | Temp. | Humidity | Pressure | Rain* | Wind** | Luminosity | Snow |
|---|---|---|---|---|---|---|---|
| 1787453775 | 37.78° C | 17% | 1012.8 hPa | 0 mm | - | 0 W/m² | - |
| 1787453470 | 37.78° C | 17% | 1012.7 hPa | 0 mm | - | 0 W/m² | - |
| 1787453170 | 38.33° C | 16% | 1012.7 hPa | 0 mm | - | 0 W/m² | - |
| 1787452865 | 38.89° C | 16% | 1012.6 hPa | 0 mm | - | 0 W/m² | - |
| 1787452564 | 39.44° C | 16% | 1012.6 hPa | 0 mm | - | 0 W/m² | - |
| 1787452259 | 40° C | 15% | 1012.6 hPa | 0 mm | - | 0 W/m² | - |
| 1787451955 | 40° C | 15% | 1012.6 hPa | 0 mm | - | 0 W/m² | - |
| 1787451654 | 40.56° C | 15% | 1012.7 hPa | 0 mm | - | 0 W/m² | - |
| 1787451353 | 40.56° C | 15% | 1012.4 hPa | 0 mm | - | 1 W/m² | - |
| 1787451050 | 41.11° C | 14% | 1012.4 hPa | 0 mm | - | 2 W/m² | - |
| 1787450745 | 41.11° C | 14% | 1012.4 hPa | 0 mm | - | 4 W/m² | - |
| 1787450441 | 41.11° C | 14% | 1012.3 hPa | 0 mm | - | 8 W/m² | - |
| 1787450136 | 41.67° C | 14% | 1012.5 hPa | 0 mm | - | 10 W/m² | - |
| 1787449831 | 41.67° C | 14% | 1012.2 hPa | 0 mm | - | 11 W/m² | - |
| 1787449527 | 41.67° C | 14% | 1012.3 hPa | 0 mm | - | 13 W/m² | - |
| 1787449222 | 42.22° C | 14% | 1012.2 hPa | 0 mm | - | 16 W/m² | - |
| 1787448922 | 42.22° C | 13% | 1012.2 hPa | 0 mm | - | 19 W/m² | - |
| 1787448618 | 42.22° C | 14% | 1012.1 hPa | 0 mm | - | 20 W/m² | - |
| 1787448314 | 42.78° C | 14% | 1012.2 hPa | 0 mm | - | 23 W/m² | - |
| 1787448014 | 42.78° C | 13% | 1012.3 hPa | 0 mm | - | 26 W/m² | - |
| 1787447713 | 43.33° C | 14% | 1012.3 hPa | 0 mm | - | 43 W/m² | - |
| 1787447408 | 43.89° C | 14% | 1012.2 hPa | 0 mm | - | 40 W/m² | - |
| 1787447105 | 43.89° C | 13% | 1012.3 hPa | 0 mm | - | 61 W/m² | - |
| 1787446801 | 44.44° C | 13% | 1012.1 hPa | 0 mm | - | 66 W/m² | - |
| 1787446495 | 43.89° C | 13% | 1012.5 hPa | 0 mm | - | 77 W/m² | - |
* Rain latest hour (hover to see other rain measurements)
** Current wind speed in m/s (hover to see current wind gust speed)